FW9285 Weather Reports


Display with metric or nautical units.
time (UTC)temp
F
wind
direction
speed
MPH
gust
MPH
rain 1hr
in
rain 24hr
in
rain mn
in
humidity
%
barometer
mb
20260901190659 93 160 4.0 6.0 0.00 0.00 0.00 47 1015.0
20260901185659 93 203 0.0 5.0 0.00 0.00 0.00 49 1015.1
20260901184659 92 225 2.0 6.0 0.00 0.00 0.00 49 1015.2
20260901183659 90 288 2.0 8.0 0.00 0.00 0.00 52 1015.4
20260901182659 90 152 3.0 8.0 0.00 0.01 0.00 52 1015.2
20260901181659 91 139 2.0 6.0 0.00 0.01 0.00 53 1015.5
20260901175659 90 156 3.0 5.0 0.00 0.02 0.00 54 1015.6
20260901174659 89 185 2.0 5.0 0.00 0.03 0.00 54 1015.4
20260901173659 89 233 3.0 6.0 0.00 0.04 0.00 55 1015.5
20260901172659 88 175 2.0 6.0 0.00 0.06 0.00 57 1015.8
20260901171659 89 135 2.0 6.0 0.00 0.07 0.00 57 1015.5
20260901170659 87 247 2.0 6.0 0.00 0.07 0.00 60 1015.8
20260901165658 87 147 0.0 5.0 0.00 0.07 0.00 61 1015.6
20260901164659 87 204 3.0 5.0 0.00 0.07 0.00 60 1015.6
20260901163659 87 168 2.0 6.0 0.00 0.07 0.00 58 1015.5
20260901162659 87 152 4.0 6.0 0.00 0.07 0.00 58 1015.7
20260901161659 87 159 2.0 5.0 0.00 0.07 0.00 57 1015.4
20260901155659 86 183 3.0 5.0 0.00 0.09 0.00 59 1015.3
20260901154659 85 195 2.0 5.0 0.00 0.10 0.00 61 1015.4
20260901153700 83 235 0.0 5.0 0.00 0.13 0.00 62 1015.3
20260901152659 84 183 3.0 4.0 0.00 0.13 0.00 61 1015.3
20260901151659 83 192 2.0 3.0 0.00 0.13 0.00 63 1015.3
20260901150659 82 213 1.0 4.0 0.00 0.14 0.00 65 1015.2
20260901145659 81 120 0.0 3.0 0.00 0.15 0.00 68 1015.2
20260901144659 80 176 1.0 3.0 0.00 0.15 0.00 71 1015.0
20260901143659 79 205 1.0 3.0 0.00 0.15 0.00 72 1015.0
20260901142659 78 191 2.0 3.0 0.00 0.15 0.00 75 1015.0
20260901141659 77 147 1.0 4.0 0.00 0.15 0.00 76 1015.0
20260901134659 75 203 0.0 3.0 0.00 0.17 0.00 79 1014.6
20260901133659 75 169 1.0 3.0 0.00 0.19 0.00 80 1014.7
20260901132700 74 183 1.0 2.0 0.00 0.20 0.00 80 1014.4
20260901131700 74 181 2.0 3.0 0.00 0.21 0.00 80 1014.7
20260901130659 74 208 2.0 4.0 0.00 0.22 0.00 80 1014.5
20260901124701 74 184 0.0 4.0 0.00 0.27 0.00 80 1014.6
20260901123700 74 169 3.0 4.0 0.00 0.28 0.00 80 1014.4
20260901121659 74 205 0.0 3.0 0.00 0.30 0.00 81 1014.1
20260901120659 74 182 2.0 3.0 0.00 0.30 0.00 81 1014.4
20260901114700 74 192 1.0 4.0 0.00 0.31 0.00 81 1014.1
20260901113659 74 177 2.0 5.0 0.00 0.31 0.00 81 1014.0
20260901112659 74 205 0.0 4.0 0.00 0.31 0.00 81 1013.8
20260901111659 74 162 2.0 4.0 0.00 0.31 0.00 81 1014.1
20260901110700 74 168 2.0 3.0 0.00 0.31 0.00 81 1013.8
20260901104659 75 180 0.0 3.0 0.00 0.31 0.00 80 1013.8
20260901103659 74 161 2.0 3.0 0.00 0.31 0.00 80 1013.6
20260901102659 75 124 0.0 2.0 0.00 0.31 0.00 80 1013.9
20260901101659 75 174 1.0 2.0 0.00 0.31 0.00 80 1013.6
20260901095659 75 202 1.0 3.0 0.00 0.32 0.00 80 1014.0
20260901094658 75 154 0.0 2.0 0.00 0.32 0.00 79 1014.1
20260901093659 75 238 1.0 3.0 0.00 0.32 0.00 79 1014.1
20260901092659 75 234 1.0 3.0 0.00 0.32 0.00 79 1014.0
20260901085659 75 218 1.0 3.0 0.00 0.35 0.00 79 1013.8
20260901084659 75 146 1.0 3.0 0.00 0.40 0.00 79 1013.9
20260901083659 75 150 2.0 3.0 0.00 0.44 0.00 79 1013.8
20260901082659 75 141 0.0 3.0 0.00 0.50 0.00 79 1014.0
20260901081700 75 180 2.0 3.0 0.00 0.60 0.00 79 1014.0
20260901080700 75 182 1.0 3.0 0.00 0.62 0.00 79 1014.3
20260901075659 75 211 1.0 4.0 0.00 0.73 0.00 78 1014.2
20260901074659 76 172 2.0 4.0 0.00 0.73 0.00 77 1014.1
20260901073659 75 198 2.0 3.0 0.00 0.73 0.00 78 1014.0
20260901072659 76 180 2.0 3.0 0.00 0.73 0.00 78 1014.3
20260901071659 76 184 2.0 3.0 0.00 0.73 0.00 78 1014.1
20260901070659 76 148 2.0 4.0 0.00 0.73 0.00 78 1014.0
20260901065659 76 191 2.0 4.0 0.00 0.73 0.73 78 1013.9
20260901064659 76 149 2.0 6.0 0.00 0.73 0.73 78 1014.0
20260901063659 76 180 2.0 3.0 0.00 0.73 0.73 78 1014.0
20260901062659 76 189 1.0 4.0 0.00 0.73 0.73 79 1013.9
20260901061659 76 186 2.0 4.0 0.00 0.73 0.73 79 1013.8
20260901060704 76 213 1.0 3.0 0.00 0.73 0.73 78 1013.5
20260901055700 76 174 2.0 3.0 0.00 0.73 0.73 78 1013.8
20260901054659 76 178 1.0 4.0 0.00 0.73 0.73 77 1013.5
20260901052659 77 214 0.0 2.0 0.00 0.73 0.73 77 1013.6
20260901051659 77 141 1.0 2.0 0.00 0.73 0.73 76 1013.8
20260901050659 77 248 0.0 3.0 0.00 0.73 0.73 77 1013.9
20260901045659 77 204 0.0 2.0 0.00 0.73 0.73 80 1013.9
20260901044659 77 178 2.0 3.0 0.00 0.73 0.73 81 1013.5
20260901043659 77 254 1.0 2.0 0.00 0.73 0.73 81 1014.1
20260901042659 78 279 0.0 2.0 0.00 0.73 0.73 80 1013.9
20260901034659 79 219 1.0 3.0 0.00 0.73 0.73 73 1013.4
20260901032659 80 184 1.0 2.0 0.00 0.73 0.73 69 1013.5
20260901031659 80 214 0.0 2.0 0.00 0.73 0.73 68 1013.4
20260901030659 80 114 0.0 2.0 0.00 0.73 0.73 66 1013.0
20260901025659 81 226 0.0 2.0 0.00 0.73 0.73 64 1013.4
20260901024659 80 245 0.0 2.0 0.00 0.73 0.73 64 1013.8
20260901023659 80 261 0.0 2.0 0.00 0.73 0.73 64 1013.2
20260901020659 81 209 0.0 3.0 0.00 0.73 0.73 62 1012.3
20260901015659 82 125 2.0 3.0 0.00 0.73 0.73 61 1012.2
20260901014659 82 200 0.0 3.0 0.00 0.73 0.73 61 1011.7
20260901013659 82 191 1.0 2.0 0.00 0.73 0.73 60 1011.8
20260901012659 83 162 2.0 4.0 0.00 0.73 0.73 60 1012.0
20260901010659 83 142 2.0 4.0 0.00 0.73 0.73 57 1012.2
20260901005659 85 160 1.0 5.0 0.00 0.73 0.73 55 1012.1
20260901003701 85 120 2.0 5.0 0.00 0.73 0.73 54 1012.4
20260901002700 85 262 3.0 5.0 0.00 0.73 0.73 54 1012.3
20260901001659 86 78 2.0 6.0 0.00 0.73 0.73 53 1012.4
20260901000659 86 149 1.0 9.0 0.00 0.73 0.73 53 1012.5
20260831235659 85 234 1.0 8.0 0.00 0.73 0.73 55 1012.5
20260831233659 84 118 7.0 9.0 0.00 0.73 0.73 55 1012.6
20260831232659 84 153 3.0 8.0 0.00 0.73 0.73 55 1012.3
20260831230659 84 152 3.0 10.0 0.00 0.73 0.73 55 1012.6
20260831225659 84 146 2.0 13.0 0.00 0.73 0.73 56 1013.0
20260831224701 84 134 5.0 12.0 0.00 0.73 0.73 57 1013.2
20260831222703 83 136 6.0 14.0 0.00 0.73 0.73 57 1013.5
20260831221658 84 189 4.0 11.0 0.00 0.73 0.73 59 1013.6
20260831220659 84 131 2.0 9.0 0.00 0.73 0.73 59 1014.0
20260831215659 84 307 0.0 10.0 0.00 0.73 0.73 59 1014.6
20260831214659 83 127 4.0 9.0 0.00 0.73 0.73 60 1014.8
20260831213659 83 159 3.0 9.0 0.00 0.73 0.73 61 1014.6
20260831212659 83 176 2.0 9.0 0.00 0.73 0.73 62 1014.9
20260831205700 82 151 4.0 7.0 0.00 0.73 0.73 63 1015.6
20260831204659 80 194 2.0 6.0 0.00 0.73 0.73 69 1015.5
20260831203659 80 170 2.0 5.0 0.00 0.73 0.73 70 1015.7
20260831202659 79 192 1.0 7.0 0.00 0.73 0.73 73 1015.8
20260831201659 77 162 3.0 6.0 0.00 0.73 0.73 75 1015.9
20260831200700 76 129 5.0 8.0 0.00 0.73 0.73 78 1015.7
20260831195659 75 181 1.0 6.0 0.00 0.73 0.73 81 1016.2
20260831194659 75 165 2.0 6.0 0.00 0.73 0.73 84 1016.1
20260831193659 74 164 5.0 8.0 0.00 0.73 0.73 86 1015.7
20260831192701 72 149 2.0 10.0 0.01 0.73 0.73 88 1015.7
20260831191659 72 158 3.0 6.0 0.01 0.73 0.73 92 1015.7